Torna al catalogo

TIANQI 32

AttivoComunicazioniLEO
NORAD 61198·PAYLOAD·🇨🇳 China

Lanciato Sep 20, 2024 da Xichang Satellite Launch Center

Loading…

Prossimi Passaggi (prossime 24 ore)

TLE

AggiornatoSource: Space-Track

Epoca: Sep 14, 2026, 14:00 UTC

1 61198U 24170D   26257.58358623  .00000013  00000-0  98967-4 0  9998
2 61198  44.8598  99.7294 0007518 135.7802 224.3630 13.97719449 97046

Traccia TIANQI 32 in tempo reale con AllMySat

Download on the App Store